Time,TemperatureF,DewpointF,PressureIn,WindDirection,WindDirectionDegrees,WindSpeedMPH,WindSpeedGustMPH,Humidity,HourlyPrecipIn,Conditions,Clouds,dailyrainin,SoftwareType,DateUTC
2013-02-05 00:02:00,45.0,43.0,29.87,SW,225,0.0,1.6,93,0.00,,,0.00,Rainwise IP-100,2013-02-05 08:02:00,
2013-02-05 00:07:00,45.0,43.0,29.87,SW,225,0.0,1.6,92,0.00,,,0.00,Rainwise IP-100,2013-02-05 08:07:00,
2013-02-05 00:12:00,45.0,43.0,29.87,SSW,202,2.1,2.6,92,0.00,,,0.00,Rainwise IP-100,2013-02-05 08:12:00,
2013-02-05 00:17:00,45.2,43.0,29.86,SSW,202,1.6,2.6,92,0.00,,,0.00,Rainwise IP-100,2013-02-05 08:17:00,
2013-02-05 00:22:00,45.2,43.0,29.86,SSW,202,1.2,4.2,92,0.00,,,0.00,Rainwise IP-100,2013-02-05 08:22:00,
2013-02-05 00:27:00,45.2,43.0,29.87,SW,225,0.0,1.9,92,0.00,,,0.00,Rainwise IP-100,2013-02-05 08:27:00,
2013-02-05 00:32:00,45.1,43.0,29.87,SSW,202,0.0,4.9,92,0.00,,,0.00,Rainwise IP-100,2013-02-05 08:32:00,
2013-02-05 00:37:00,45.1,43.0,29.87,SSW,202,1.4,2.1,92,0.00,,,0.00,Rainwise IP-100,2013-02-05 08:37:00,
2013-02-05 00:42:00,45.0,43.0,29.86,South,180,1.4,2.3,92,0.00,,,0.00,Rainwise IP-100,2013-02-05 08:42:00,
2013-02-05 00:47:00,45.0,43.0,29.87,SW,225,1.9,3.5,92,0.00,,,0.00,Rainwise IP-100,2013-02-05 08:47:00,
2013-02-05 00:52:00,45.1,43.0,29.87,SSW,202,1.6,2.8,92,0.00,,,0.00,Rainwise IP-100,2013-02-05 08:52:00,
2013-02-05 00:57:00,45.2,43.0,29.87,SSW,202,0.0,3.3,92,0.00,,,0.00,Rainwise IP-100,2013-02-05 08:57:00,
2013-02-05 01:02:00,45.2,43.0,29.86,SW,225,0.0,3.3,92,0.00,,,0.00,Rainwise IP-100,2013-02-05 09:02:00,
2013-02-05 01:07:00,45.3,42.0,29.87,South,180,0.0,2.8,91,0.00,,,0.00,Rainwise IP-100,2013-02-05 09:07:00,
2013-02-05 01:12:00,45.4,42.0,29.87,SSW,202,0.0,4.0,91,0.00,,,0.00,Rainwise IP-100,2013-02-05 09:12:00,
2013-02-05 01:17:00,45.4,42.0,29.86,SSW,202,0.0,2.1,91,0.00,,,0.00,Rainwise IP-100,2013-02-05 09:17:00,
2013-02-05 01:22:00,45.5,43.0,29.86,SSW,202,1.4,2.6,91,0.00,,,0.00,Rainwise IP-100,2013-02-05 09:22:00,
2013-02-05 01:27:00,45.5,43.0,29.85,SSW,202,0.0,2.6,91,0.00,,,0.00,Rainwise IP-100,2013-02-05 09:27:00,
2013-02-05 01:32:00,45.5,43.0,29.86,SSW,202,1.9,1.9,91,0.00,,,0.00,Rainwise IP-100,2013-02-05 09:32:00,
2013-02-05 01:37:00,45.6,43.0,29.86,SSW,202,1.6,2.3,91,0.00,,,0.00,Rainwise IP-100,2013-02-05 09:37:00,
2013-02-05 01:42:00,45.6,43.0,29.86,SW,225,2.6,2.6,91,0.00,,,0.00,Rainwise IP-100,2013-02-05 09:42:00,
2013-02-05 01:47:00,45.7,43.0,29.86,SSW,202,0.0,3.7,90,0.00,,,0.00,Rainwise IP-100,2013-02-05 09:47:00,
2013-02-05 01:52:00,45.8,43.0,29.86,SSW,202,0.0,1.9,90,0.00,,,0.00,Rainwise IP-100,2013-02-05 09:52:00,
2013-02-05 01:57:00,45.8,43.0,29.86,SW,225,0.0,2.3,90,0.00,,,0.00,Rainwise IP-100,2013-02-05 09:57:00,
2013-02-05 02:02:00,45.8,43.0,29.86,SSW,202,1.9,2.3,90,0.00,,,0.00,Rainwise IP-100,2013-02-05 10:02:00,
2013-02-05 02:07:00,45.8,43.0,29.86,SW,225,1.2,3.0,90,0.00,,,0.00,Rainwise IP-100,2013-02-05 10:07:00,
2013-02-05 02:12:00,45.8,43.0,29.86,SSW,202,2.6,2.6,90,0.00,,,0.00,Rainwise IP-100,2013-02-05 10:12:00,
2013-02-05 02:17:00,45.7,43.0,29.86,SSW,202,1.2,3.3,90,0.00,,,0.00,Rainwise IP-100,2013-02-05 10:17:00,
2013-02-05 02:22:00,45.7,43.0,29.86,SSW,202,0.0,3.0,90,0.00,,,0.00,Rainwise IP-100,2013-02-05 10:22:00,
2013-02-05 02:27:00,45.7,43.0,29.86,SSW,202,1.2,4.7,90,0.00,,,0.00,Rainwise IP-100,2013-02-05 10:27:00,
2013-02-05 02:32:00,45.7,43.0,29.86,SSW,202,0.0,3.5,91,0.00,,,0.00,Rainwise IP-100,2013-02-05 10:32:00,
2013-02-05 02:37:00,45.6,43.0,29.86,SSW,202,1.2,2.8,91,0.00,,,0.00,Rainwise IP-100,2013-02-05 10:37:00,
2013-02-05 02:42:00,45.6,43.0,29.85,SW,225,2.1,3.5,91,0.00,,,0.00,Rainwise IP-100,2013-02-05 10:42:00,
2013-02-05 02:47:00,45.6,43.0,29.85,SW,225,0.0,2.1,91,0.00,,,0.00,Rainwise IP-100,2013-02-05 10:47:00,
2013-02-05 02:52:00,45.5,43.0,29.84,SSW,202,1.6,1.9,91,0.00,,,0.00,Rainwise IP-100,2013-02-05 10:52:00,
2013-02-05 02:57:00,45.4,42.0,29.84,SSW,202,0.0,1.9,91,0.00,,,0.00,Rainwise IP-100,2013-02-05 10:57:00,
2013-02-05 03:02:00,45.4,42.0,29.84,South,180,0.0,2.3,91,0.00,,,0.00,Rainwise IP-100,2013-02-05 11:02:00,
2013-02-05 03:07:00,45.3,42.0,29.84,SSW,202,0.0,1.6,91,0.00,,,0.00,Rainwise IP-100,2013-02-05 11:07:00,
2013-02-05 03:12:00,45.2,42.0,29.84,SSW,202,0.0,1.9,91,0.00,,,0.00,Rainwise IP-100,2013-02-05 11:12:00,
2013-02-05 03:17:00,45.1,43.0,29.84,SSW,202,0.0,1.6,92,0.00,,,0.00,Rainwise IP-100,2013-02-05 11:17:00,
2013-02-05 03:22:00,45.1,43.0,29.84,SSW,202,0.0,2.3,92,0.00,,,0.00,Rainwise IP-100,2013-02-05 11:22:00,
2013-02-05 03:27:00,45.2,43.0,29.84,SW,225,0.0,2.8,92,0.00,,,0.00,Rainwise IP-100,2013-02-05 11:27:00,
2013-02-05 03:32:00,45.3,42.0,29.84,SW,225,0.0,1.4,91,0.00,,,0.00,Rainwise IP-100,2013-02-05 11:32:00,
2013-02-05 03:37:00,45.3,42.0,29.85,SSW,202,0.0,2.3,91,0.00,,,0.00,Rainwise IP-100,2013-02-05 11:37:00,
2013-02-05 03:42:00,45.4,42.0,29.85,SSW,202,0.0,1.9,91,0.00,,,0.00,Rainwise IP-100,2013-02-05 11:42:00,
2013-02-05 03:47:00,45.4,42.0,29.85,SSW,202,0.0,1.6,91,0.00,,,0.00,Rainwise IP-100,2013-02-05 11:47:00,
2013-02-05 03:52:00,45.4,42.0,29.84,SSW,202,0.0,0.0,91,0.00,,,0.00,Rainwise IP-100,2013-02-05 11:52:00,
2013-02-05 03:57:00,45.4,42.0,29.85,SSW,202,0.0,1.9,91,0.00,,,0.00,Rainwise IP-100,2013-02-05 11:57:00,
2013-02-05 04:02:00,45.4,42.0,29.85,SSW,202,0.0,1.2,91,0.00,,,0.00,Rainwise IP-100,2013-02-05 12:02:00,
2013-02-05 04:07:00,45.4,42.0,29.85,SSW,202,0.0,1.2,91,0.00,,,0.00,Rainwise IP-100,2013-02-05 12:07:00,
2013-02-05 04:12:00,45.4,42.0,29.86,SSW,202,0.0,1.2,91,0.00,,,0.00,Rainwise IP-100,2013-02-05 12:12:00,
2013-02-05 04:17:00,45.4,42.0,29.85,SSW,202,0.0,1.6,91,0.00,,,0.00,Rainwise IP-100,2013-02-05 12:17:00,
2013-02-05 04:22:00,45.3,43.0,29.85,SSW,202,0.0,2.3,92,0.06,,,0.01,Rainwise IP-100,2013-02-05 12:22:00,
2013-02-05 04:27:00,45.2,43.0,29.86,SSW,202,0.0,2.1,93,0.06,,,0.01,Rainwise IP-100,2013-02-05 12:27:00,
2013-02-05 04:32:00,45.0,43.0,29.85,SSW,202,0.0,3.7,94,0.00,,,0.01,Rainwise IP-100,2013-02-05 12:32:00,
2013-02-05 04:37:00,44.9,43.0,29.85,South,180,0.0,3.5,94,0.06,,,0.02,Rainwise IP-100,2013-02-05 12:37:00,
2013-02-05 04:42:00,44.8,44.0,29.85,SSW,202,1.2,3.7,95,0.06,,,0.02,Rainwise IP-100,2013-02-05 12:42:00,
2013-02-05 04:47:00,44.6,44.0,29.85,SSW,202,0.0,3.0,95,0.00,,,0.02,Rainwise IP-100,2013-02-05 12:47:00,
2013-02-05 04:52:00,44.6,44.0,29.85,SSW,202,2.1,2.6,95,0.00,,,0.02,Rainwise IP-100,2013-02-05 12:52:00,
2013-02-05 04:57:00,44.5,44.0,29.85,SSW,202,5.8,5.8,96,0.06,,,0.03,Rainwise IP-100,2013-02-05 12:57:00,
2013-02-05 05:02:00,44.5,44.0,29.85,South,180,2.6,6.1,96,0.06,,,0.03,Rainwise IP-100,2013-02-05 13:02:00,
2013-02-05 05:07:00,44.4,43.0,29.84,South,180,0.0,2.8,96,0.00,,,0.03,Rainwise IP-100,2013-02-05 13:07:00,
2013-02-05 05:12:00,44.3,43.0,29.84,SW,225,1.4,3.3,97,0.00,,,0.03,Rainwise IP-100,2013-02-05 13:12:00,
2013-02-05 05:17:00,44.3,43.0,29.84,SSW,202,1.6,3.0,97,0.00,,,0.03,Rainwise IP-100,2013-02-05 13:17:00,
2013-02-05 05:22:00,44.3,43.0,29.84,SSW,202,1.2,4.2,96,0.00,,,0.03,Rainwise IP-100,2013-02-05 13:22:00,
2013-02-05 05:27:00,44.3,43.0,29.83,South,180,0.0,1.9,96,0.00,,,0.03,Rainwise IP-100,2013-02-05 13:27:00,
2013-02-05 05:32:00,44.3,43.0,29.83,SSW,202,0.0,5.4,96,0.06,,,0.04,Rainwise IP-100,2013-02-05 13:32:00,
2013-02-05 05:37:00,44.3,43.0,29.83,SSW,202,2.6,4.0,96,0.06,,,0.04,Rainwise IP-100,2013-02-05 13:37:00,
2013-02-05 05:42:00,44.3,43.0,29.83,South,180,1.6,4.2,96,0.00,,,0.04,Rainwise IP-100,2013-02-05 13:42:00,
2013-02-05 05:47:00,44.2,43.0,29.82,SW,225,0.0,4.0,96,0.06,,,0.05,Rainwise IP-100,2013-02-05 13:47:00,
2013-02-05 05:52:00,44.3,43.0,29.82,SSW,202,2.8,5.6,96,0.06,,,0.05,Rainwise IP-100,2013-02-05 13:52:00,
2013-02-05 05:57:00,44.4,43.0,29.82,SSW,202,1.9,5.6,95,0.00,,,0.05,Rainwise IP-100,2013-02-05 13:57:00,
2013-02-05 06:02:00,44.4,43.0,29.82,SW,225,2.8,5.6,95,0.00,,,0.05,Rainwise IP-100,2013-02-05 14:02:00,
2013-02-05 06:07:00,44.4,43.0,29.82,WSW,247,0.0,5.6,95,0.00,,,0.05,Rainwise IP-100,2013-02-05 14:07:00,
2013-02-05 06:12:00,44.4,43.0,29.81,SSW,202,0.0,2.6,95,0.00,,,0.05,Rainwise IP-100,2013-02-05 14:12:00,
2013-02-05 06:17:00,44.3,43.0,29.82,South,180,1.2,2.3,96,0.00,,,0.05,Rainwise IP-100,2013-02-05 14:17:00,
2013-02-05 06:22:00,44.3,43.0,29.82,West,270,0.0,3.0,96,0.00,,,0.05,Rainwise IP-100,2013-02-05 14:22:00,
2013-02-05 06:27:00,44.3,43.0,29.82,West,270,0.0,0.0,96,0.00,,,0.05,Rainwise IP-100,2013-02-05 14:27:00,
2013-02-05 06:32:00,44.2,43.0,29.81,South,180,0.0,1.6,96,0.00,,,0.05,Rainwise IP-100,2013-02-05 14:32:00,
2013-02-05 06:37:00,44.1,43.0,29.81,South,180,0.0,0.0,97,0.00,,,0.05,Rainwise IP-100,2013-02-05 14:37:00,
2013-02-05 06:42:00,44.1,43.0,29.81,NNE,22,0.0,0.0,97,0.00,,,0.05,Rainwise IP-100,2013-02-05 14:42:00,
2013-02-05 06:47:00,44.1,43.0,29.82,NNE,22,0.0,0.0,97,0.00,,,0.05,Rainwise IP-100,2013-02-05 14:47:00,
2013-02-05 06:52:00,44.0,43.0,29.82,NNE,22,0.0,0.0,97,0.00,,,0.05,Rainwise IP-100,2013-02-05 14:52:00,
2013-02-05 06:57:00,44.0,43.0,29.81,NNE,22,0.0,0.0,97,0.00,,,0.05,Rainwise IP-100,2013-02-05 14:57:00,
2013-02-05 07:02:00,44.0,43.0,29.82,South,180,0.0,1.2,97,0.00,,,0.05,Rainwise IP-100,2013-02-05 15:02:00,
2013-02-05 07:07:00,44.0,43.0,29.81,South,180,0.0,1.2,97,0.00,,,0.05,Rainwise IP-100,2013-02-05 15:07:00,
2013-02-05 07:12:00,44.1,43.0,29.82,South,180,0.0,0.0,97,0.00,,,0.05,Rainwise IP-100,2013-02-05 15:12:00,
2013-02-05 07:17:00,44.0,43.0,29.82,SSW,202,0.0,2.8,97,0.00,,,0.05,Rainwise IP-100,2013-02-05 15:17:00,
2013-02-05 07:22:00,44.0,43.0,29.82,SSW,202,0.0,2.8,97,0.00,,,0.05,Rainwise IP-100,2013-02-05 15:22:00,
2013-02-05 07:27:00,44.1,43.0,29.82,SSW,202,0.0,0.0,97,0.00,,,0.05,Rainwise IP-100,2013-02-05 15:27:00,
2013-02-05 07:32:00,44.1,43.0,29.82,SSW,202,0.0,1.2,97,0.00,,,0.05,Rainwise IP-100,2013-02-05 15:32:00,
2013-02-05 07:37:00,44.1,43.0,29.83,SSW,202,0.0,1.2,97,0.00,,,0.05,Rainwise IP-100,2013-02-05 15:37:00,
2013-02-05 07:42:00,44.1,43.0,29.82,South,180,1.6,3.0,97,0.00,,,0.05,Rainwise IP-100,2013-02-05 15:42:00,
2013-02-05 07:47:00,44.2,43.0,29.83,South,180,0.0,2.1,97,0.00,,,0.05,Rainwise IP-100,2013-02-05 15:47:00,
2013-02-05 07:52:00,44.2,43.0,29.82,South,180,0.0,1.2,97,0.00,,,0.05,Rainwise IP-100,2013-02-05 15:52:00,
2013-02-05 07:57:00,44.2,43.0,29.82,SSW,202,0.0,4.4,97,0.00,,,0.05,Rainwise IP-100,2013-02-05 15:57:00,
2013-02-05 08:02:00,44.2,43.0,29.83,SSW,202,0.0,2.1,97,0.00,,,0.05,Rainwise IP-100,2013-02-05 16:02:00,
2013-02-05 08:07:00,44.4,43.0,29.83,SSW,202,1.2,7.2,96,0.00,,,0.05,Rainwise IP-100,2013-02-05 16:07:00,
2013-02-05 08:12:00,44.5,44.0,29.83,SSW,202,0.0,2.6,96,0.00,,,0.05,Rainwise IP-100,2013-02-05 16:12:00,
2013-02-05 08:17:00,44.7,44.0,29.83,SW,225,0.0,3.7,95,0.00,,,0.05,Rainwise IP-100,2013-02-05 16:17:00,
2013-02-05 08:22:00,44.8,43.0,29.83,SW,225,1.9,2.8,94,0.00,,,0.05,Rainwise IP-100,2013-02-05 16:22:00,
2013-02-05 08:27:00,44.9,43.0,29.83,SW,225,1.9,2.6,94,0.00,,,0.05,Rainwise IP-100,2013-02-05 16:27:00,
2013-02-05 08:32:00,44.9,43.0,29.83,SSW,202,3.0,3.0,93,0.00,,,0.05,Rainwise IP-100,2013-02-05 16:32:00,
2013-02-05 08:37:00,45.0,43.0,29.83,SSW,202,0.0,3.3,93,0.00,,,0.05,Rainwise IP-100,2013-02-05 16:37:00,
2013-02-05 08:42:00,45.1,43.0,29.83,SSW,202,1.4,4.0,92,0.00,,,0.05,Rainwise IP-100,2013-02-05 16:42:00,
2013-02-05 08:49:00,45.3,43.0,29.84,SSW,202,1.6,2.6,92,0.00,,,0.05,Rainwise IP-100,2013-02-05 16:49:00,
2013-02-05 08:54:00,45.4,43.0,29.84,SSW,202,2.1,4.2,92,0.00,,,0.05,Rainwise IP-100,2013-02-05 16:54:00,
2013-02-05 08:59:00,45.4,43.0,29.84,SSW,202,1.2,3.3,92,0.00,,,0.05,Rainwise IP-100,2013-02-05 16:59:00,
2013-02-05 09:04:00,45.5,43.0,29.84,South,180,1.6,3.7,91,0.00,,,0.05,Rainwise IP-100,2013-02-05 17:04:00,
2013-02-05 09:09:00,45.5,43.0,29.84,SSW,202,1.2,4.4,91,0.00,,,0.05,Rainwise IP-100,2013-02-05 17:09:00,
2013-02-05 09:14:00,45.7,43.0,29.83,SSW,202,1.2,4.2,90,0.00,,,0.05,Rainwise IP-100,2013-02-05 17:14:00,
2013-02-05 09:19:00,45.7,43.0,29.83,SSW,202,1.2,1.9,90,0.00,,,0.05,Rainwise IP-100,2013-02-05 17:19:00,
2013-02-05 09:24:00,45.8,43.0,29.83,SSW,202,1.2,3.5,90,0.00,,,0.05,Rainwise IP-100,2013-02-05 17:24:00,
2013-02-05 09:29:00,46.0,43.0,29.83,SW,225,1.4,2.1,90,0.00,,,0.05,Rainwise IP-100,2013-02-05 17:29:00,
2013-02-05 09:34:00,46.3,43.0,29.83,SSW,202,0.0,3.3,90,0.00,,,0.05,Rainwise IP-100,2013-02-05 17:34:00,
2013-02-05 09:39:00,46.5,43.0,29.83,South,180,0.0,5.1,89,0.00,,,0.05,Rainwise IP-100,2013-02-05 17:39:00,
2013-02-05 09:44:00,46.6,43.0,29.83,SSW,202,3.5,4.7,88,0.00,,,0.05,Rainwise IP-100,2013-02-05 17:44:00,
2013-02-05 09:49:00,46.8,43.0,29.84,South,180,1.4,4.2,88,0.00,,,0.05,Rainwise IP-100,2013-02-05 17:49:00,
2013-02-05 09:54:00,46.8,43.0,29.84,SSW,202,1.4,4.0,88,0.00,,,0.05,Rainwise IP-100,2013-02-05 17:54:00,
2013-02-05 09:59:00,46.8,43.0,29.84,SSW,202,0.0,4.4,87,0.00,,,0.05,Rainwise IP-100,2013-02-05 17:59:00,
2013-02-05 10:04:00,46.9,43.0,29.84,SSW,202,0.0,7.9,87,0.00,,,0.05,Rainwise IP-100,2013-02-05 18:04:00,
2013-02-05 10:09:00,46.9,43.0,29.84,SSW,202,1.6,3.0,86,0.00,,,0.05,Rainwise IP-100,2013-02-05 18:09:00,
2013-02-05 10:14:00,47.0,43.0,29.84,SW,225,0.0,4.7,86,0.00,,,0.05,Rainwise IP-100,2013-02-05 18:14:00,
2013-02-05 10:19:00,47.1,43.0,29.84,SSW,202,4.2,4.2,86,0.00,,,0.05,Rainwise IP-100,2013-02-05 18:19:00,
2013-02-05 10:25:00,47.3,43.0,29.84,South,180,1.6,4.4,86,0.00,,,0.05,Rainwise IP-100,2013-02-05 18:25:00,
2013-02-05 10:30:00,47.6,43.0,29.84,South,180,3.5,3.5,86,0.00,,,0.05,Rainwise IP-100,2013-02-05 18:30:00,
2013-02-05 10:35:00,48.0,44.0,29.84,South,180,0.0,4.4,85,0.00,,,0.05,Rainwise IP-100,2013-02-05 18:35:00,
2013-02-05 10:40:00,48.1,44.0,29.84,SE,135,0.0,3.7,85,0.00,,,0.05,Rainwise IP-100,2013-02-05 18:40:00,
2013-02-05 10:45:00,48.2,44.0,29.84,SW,225,0.0,4.9,84,0.00,,,0.05,Rainwise IP-100,2013-02-05 18:45:00,
2013-02-05 10:50:00,48.3,43.0,29.84,SW,225,1.6,3.3,83,0.00,,,0.05,Rainwise IP-100,2013-02-05 18:50:00,
2013-02-05 10:55:00,48.4,44.0,29.84,SSW,202,1.9,3.7,84,0.00,,,0.05,Rainwise IP-100,2013-02-05 18:55:00,
2013-02-05 11:00:00,48.6,44.0,29.84,SSW,202,1.4,6.3,84,0.00,,,0.05,Rainwise IP-100,2013-02-05 19:00:00,
2013-02-05 11:05:00,48.8,44.0,29.84,South,180,1.4,4.2,83,0.00,,,0.05,Rainwise IP-100,2013-02-05 19:05:00,
2013-02-05 11:10:00,48.9,44.0,29.84,SW,225,0.0,6.1,83,0.00,,,0.05,Rainwise IP-100,2013-02-05 19:10:00,
2013-02-05 11:15:00,49.0,44.0,29.84,SSE,157,1.2,5.6,82,0.00,,,0.05,Rainwise IP-100,2013-02-05 19:15:00,
2013-02-05 11:20:00,49.0,44.0,29.84,South,180,1.9,5.6,82,0.00,,,0.05,Rainwise IP-100,2013-02-05 19:20:00,
2013-02-05 11:25:00,49.0,43.0,29.84,SSW,202,1.4,6.8,81,0.00,,,0.05,Rainwise IP-100,2013-02-05 19:25:00,
2013-02-05 11:30:00,48.8,43.0,29.84,South,180,3.5,5.8,81,0.00,,,0.05,Rainwise IP-100,2013-02-05 19:30:00,
2013-02-05 11:35:00,48.4,44.0,29.84,South,180,1.2,4.4,84,0.00,,,0.05,Rainwise IP-100,2013-02-05 19:35:00,
2013-02-05 11:40:00,48.0,44.0,29.84,SSE,157,0.0,4.4,85,0.00,,,0.05,Rainwise IP-100,2013-02-05 19:40:00,
2013-02-05 11:45:00,47.8,44.0,29.84,SSW,202,3.0,5.1,86,0.00,,,0.05,Rainwise IP-100,2013-02-05 19:45:00,
2013-02-05 11:50:00,47.8,44.0,29.84,South,180,1.6,6.5,86,0.00,,,0.05,Rainwise IP-100,2013-02-05 19:50:00,
2013-02-05 11:55:00,47.9,44.0,29.84,SSW,202,1.4,5.4,86,0.00,,,0.05,Rainwise IP-100,2013-02-05 19:55:00,
2013-02-05 12:00:00,48.1,44.0,29.84,SSW,202,3.0,3.7,85,0.00,,,0.05,Rainwise IP-100,2013-02-05 20:00:00,
2013-02-05 12:05:00,48.4,44.0,29.84,SSW,202,1.9,5.6,84,0.00,,,0.05,Rainwise IP-100,2013-02-05 20:05:00,
2013-02-05 12:10:00,48.8,44.0,29.84,SSW,202,2.8,4.9,82,0.00,,,0.05,Rainwise IP-100,2013-02-05 20:10:00,
2013-02-05 12:15:00,49.1,43.0,29.84,South,180,1.6,4.7,81,0.00,,,0.05,Rainwise IP-100,2013-02-05 20:15:00,
2013-02-05 12:20:00,49.2,43.0,29.83,SW,225,2.6,6.3,81,0.00,,,0.05,Rainwise IP-100,2013-02-05 20:20:00,
2013-02-05 12:25:00,49.2,43.0,29.83,SW,225,2.8,6.1,80,0.00,,,0.05,Rainwise IP-100,2013-02-05 20:25:00,
2013-02-05 12:30:00,49.3,43.0,29.83,South,180,2.8,5.4,80,0.00,,,0.05,Rainwise IP-100,2013-02-05 20:30:00,
2013-02-05 12:35:00,49.6,43.0,29.83,SSE,157,3.3,3.5,79,0.00,,,0.05,Rainwise IP-100,2013-02-05 20:35:00,
2013-02-05 12:40:00,49.9,43.0,29.83,SW,225,1.9,4.7,78,0.00,,,0.05,Rainwise IP-100,2013-02-05 20:40:00,
2013-02-05 12:45:00,50.1,43.0,29.83,South,180,2.8,4.9,78,0.00,,,0.05,Rainwise IP-100,2013-02-05 20:45:00,
2013-02-05 17:27:00,50.1,43.0,29.83,SSW,202,999.9,0.0,78,0.00,,,0.07,Rainwise IP-100,2013-02-06 01:27:00,
2013-02-05 17:32:00,47.3,43.0,29.83,SSW,202,0.0,999.9,86,0.12,,,0.07,Rainwise IP-100,2013-02-06 01:32:00,
2013-02-05 17:37:00,44.4,42.0,29.82,SSW,202,1.2,3.3,94,0.12,,,0.07,Rainwise IP-100,2013-02-06 01:37:00,
2013-02-05 17:42:00,44.4,42.0,29.82,SSW,202,2.1,8.6,94,0.00,,,0.07,Rainwise IP-100,2013-02-06 01:42:00,
2013-02-05 17:47:00,44.6,43.0,29.82,SSW,202,2.1,4.4,93,0.00,,,0.07,Rainwise IP-100,2013-02-06 01:47:00,
2013-02-05 17:52:00,44.6,43.0,29.82,South,180,3.0,3.5,93,0.00,,,0.07,Rainwise IP-100,2013-02-06 01:52:00,
2013-02-05 17:57:00,44.6,43.0,29.82,SSW,202,1.4,4.4,93,0.00,,,0.07,Rainwise IP-100,2013-02-06 01:57:00,
2013-02-05 18:02:00,44.6,43.0,29.83,South,180,1.2,3.7,93,0.00,,,0.07,Rainwise IP-100,2013-02-06 02:02:00,
2013-02-05 18:07:00,44.6,43.0,29.82,SSW,202,1.2,4.0,93,0.00,,,0.07,Rainwise IP-100,2013-02-06 02:07:00,
2013-02-05 18:12:00,44.7,43.0,29.82,SSW,202,0.0,4.4,93,0.00,,,0.07,Rainwise IP-100,2013-02-06 02:12:00,
2013-02-05 18:17:00,44.7,43.0,29.82,SSW,202,0.0,4.9,93,0.00,,,0.07,Rainwise IP-100,2013-02-06 02:17:00,
2013-02-05 18:22:00,44.8,43.0,29.83,SSW,202,0.0,5.1,93,0.00,,,0.07,Rainwise IP-100,2013-02-06 02:22:00,
2013-02-05 18:27:00,45.0,43.0,29.83,SSW,202,2.6,4.9,93,0.00,,,0.07,Rainwise IP-100,2013-02-06 02:27:00,
2013-02-05 18:32:00,45.1,43.0,29.84,South,180,4.7,4.7,93,0.00,,,0.07,Rainwise IP-100,2013-02-06 02:32:00,
2013-02-05 18:37:00,45.1,43.0,29.84,South,180,1.4,4.7,93,0.00,,,0.07,Rainwise IP-100,2013-02-06 02:37:00,
2013-02-05 18:42:00,45.2,43.0,29.84,SSE,157,0.0,4.7,93,0.00,,,0.07,Rainwise IP-100,2013-02-06 02:42:00,
2013-02-05 18:47:00,45.4,43.0,29.84,SSW,202,1.6,4.4,93,0.00,,,0.07,Rainwise IP-100,2013-02-06 02:47:00,
2013-02-05 18:52:00,45.5,44.0,29.84,SSW,202,2.3,4.2,93,0.00,,,0.07,Rainwise IP-100,2013-02-06 02:52:00,
2013-02-05 18:57:00,45.6,44.0,29.84,SSW,202,2.8,4.7,92,0.00,,,0.07,Rainwise IP-100,2013-02-06 02:57:00,
2013-02-05 19:02:00,45.9,43.0,29.84,SSW,202,2.8,7.9,91,0.00,,,0.07,Rainwise IP-100,2013-02-06 03:02:00,
2013-02-05 19:07:00,46.0,43.0,29.85,SSW,202,1.6,7.5,90,0.00,,,0.07,Rainwise IP-100,2013-02-06 03:07:00,
2013-02-05 19:12:00,46.0,43.0,29.84,SSW,202,1.4,5.6,90,0.00,,,0.07,Rainwise IP-100,2013-02-06 03:12:00,
2013-02-05 19:17:00,45.9,43.0,29.84,SSW,202,3.5,4.0,89,0.00,,,0.07,Rainwise IP-100,2013-02-06 03:17:00,
2013-02-05 19:22:00,45.9,43.0,29.84,South,180,1.4,4.2,89,0.00,,,0.07,Rainwise IP-100,2013-02-06 03:22:00,
2013-02-05 19:27:00,45.8,43.0,29.84,South,180,1.4,5.4,89,0.00,,,0.07,Rainwise IP-100,2013-02-06 03:27:00,
2013-02-05 19:32:00,45.6,43.0,29.85,SSW,202,2.3,5.4,89,0.00,,,0.07,Rainwise IP-100,2013-02-06 03:32:00,
2013-02-05 19:37:00,45.6,43.0,29.84,South,180,1.2,6.5,89,0.00,,,0.07,Rainwise IP-100,2013-02-06 03:37:00,
2013-02-05 19:42:00,45.6,43.0,29.85,South,180,1.9,4.7,89,0.00,,,0.07,Rainwise IP-100,2013-02-06 03:42:00,
2013-02-05 19:47:00,45.5,43.0,29.85,SSW,202,4.9,4.9,89,0.00,,,0.07,Rainwise IP-100,2013-02-06 03:47:00,
2013-02-05 19:52:00,45.5,43.0,29.84,SSW,202,2.1,5.6,89,0.00,,,0.07,Rainwise IP-100,2013-02-06 03:52:00,
2013-02-05 19:57:00,45.5,43.0,29.85,South,180,3.0,7.5,90,0.00,,,0.07,Rainwise IP-100,2013-02-06 03:57:00,
2013-02-05 20:02:00,45.5,43.0,29.85,South,180,1.4,9.1,89,0.00,,,0.07,Rainwise IP-100,2013-02-06 04:02:00,
2013-02-05 20:07:00,45.5,43.0,29.85,SSW,202,5.4,5.4,89,0.00,,,0.07,Rainwise IP-100,2013-02-06 04:07:00,
2013-02-05 20:12:00,45.5,43.0,29.85,SSW,202,0.0,6.1,89,0.00,,,0.07,Rainwise IP-100,2013-02-06 04:12:00,
2013-02-05 20:17:00,45.5,43.0,29.84,South,180,2.6,6.8,89,0.00,,,0.07,Rainwise IP-100,2013-02-06 04:17:00,
2013-02-05 20:22:00,45.5,43.0,29.84,South,180,1.9,7.2,89,0.00,,,0.07,Rainwise IP-100,2013-02-06 04:22:00,
2013-02-05 20:27:00,45.4,42.0,29.84,South,180,2.3,7.5,89,0.00,,,0.07,Rainwise IP-100,2013-02-06 04:27:00,
2013-02-05 20:32:00,45.3,42.0,29.85,South,180,2.1,5.8,89,0.00,,,0.07,Rainwise IP-100,2013-02-06 04:32:00,
2013-02-05 20:37:00,45.2,42.0,29.85,South,180,1.6,6.3,89,0.00,,,0.07,Rainwise IP-100,2013-02-06 04:37:00,
2013-02-05 20:42:00,45.2,42.0,29.85,SW,225,0.0,8.4,89,0.00,,,0.07,Rainwise IP-100,2013-02-06 04:42:00,
2013-02-05 20:47:00,45.1,42.0,29.85,South,180,1.9,9.1,89,0.00,,,0.07,Rainwise IP-100,2013-02-06 04:47:00,
2013-02-05 20:52:00,45.1,42.0,29.86,South,180,1.9,5.4,89,0.00,,,0.07,Rainwise IP-100,2013-02-06 04:52:00,
2013-02-05 20:57:00,45.0,42.0,29.86,WSW,247,2.3,6.1,89,0.00,,,0.07,Rainwise IP-100,2013-02-06 04:57:00,
2013-02-05 21:00:00,45.0,42.0,29.87,South,180,1.6,6.1,89,0.00,,,0.07,Rainwise IP-100,2013-02-06 05:00:00,
2013-02-05 21:05:00,45.0,42.0,29.86,SSE,157,1.6,8.2,89,0.00,,,0.07,Rainwise IP-100,2013-02-06 05:05:00,
2013-02-05 21:10:00,44.9,42.0,29.87,South,180,2.3,5.8,89,0.00,,,0.07,Rainwise IP-100,2013-02-06 05:10:00,
2013-02-05 21:15:00,44.8,42.0,29.87,South,180,1.4,5.4,89,0.00,,,0.07,Rainwise IP-100,2013-02-06 05:15:00,
2013-02-05 21:20:00,44.8,42.0,29.88,SSW,202,1.9,6.1,89,0.00,,,0.07,Rainwise IP-100,2013-02-06 05:20:00,
2013-02-05 21:25:00,44.6,42.0,29.88,South,180,1.6,5.1,91,0.06,,,0.08,Rainwise IP-100,2013-02-06 05:25:00,
2013-02-05 21:30:00,44.3,42.0,29.88,South,180,1.4,6.3,93,0.12,,,0.09,Rainwise IP-100,2013-02-06 05:30:00,
2013-02-05 21:35:00,44.0,42.0,29.88,SW,225,3.5,5.8,93,0.06,,,0.09,Rainwise IP-100,2013-02-06 05:35:00,
2013-02-05 21:40:00,43.9,42.0,29.87,SSW,202,0.0,6.8,94,0.00,,,0.09,Rainwise IP-100,2013-02-06 05:40:00,
2013-02-05 21:45:00,43.7,42.0,29.87,SSW,202,1.6,5.6,94,0.00,,,0.09,Rainwise IP-100,2013-02-06 05:45:00,
2013-02-05 21:50:00,43.7,43.0,29.87,SSW,202,3.3,4.2,95,0.00,,,0.09,Rainwise IP-100,2013-02-06 05:50:00,
2013-02-05 21:55:00,43.7,42.0,29.87,SSW,202,1.2,7.7,94,0.00,,,0.09,Rainwise IP-100,2013-02-06 05:55:00,
2013-02-05 22:00:00,43.7,42.0,29.87,SSW,202,1.2,5.8,94,0.00,,,0.09,Rainwise IP-100,2013-02-06 06:00:00,
2013-02-05 22:05:00,43.7,42.0,29.87,SSW,202,1.9,8.4,94,0.00,,,0.09,Rainwise IP-100,2013-02-06 06:05:00,
2013-02-05 22:10:00,43.7,42.0,29.87,SSW,202,2.6,5.6,94,0.00,,,0.09,Rainwise IP-100,2013-02-06 06:10:00,
2013-02-05 22:15:00,43.8,42.0,29.87,SSW,202,2.8,4.9,94,0.00,,,0.09,Rainwise IP-100,2013-02-06 06:15:00,
2013-02-05 22:20:00,43.9,42.0,29.87,SW,225,2.1,8.2,93,0.00,,,0.09,Rainwise IP-100,2013-02-06 06:20:00,
2013-02-05 22:25:00,43.9,42.0,29.87,South,180,1.2,5.4,93,0.00,,,0.09,Rainwise IP-100,2013-02-06 06:25:00,
2013-02-05 22:30:00,44.0,42.0,29.87,South,180,1.2,5.8,92,0.00,,,0.09,Rainwise IP-100,2013-02-06 06:30:00,
2013-02-05 22:34:00,44.1,42.0,29.88,SSE,157,3.3,6.8,93,0.00,,,0.09,Rainwise IP-100,2013-02-06 06:34:00,
2013-02-05 22:35:00,44.1,42.0,29.88,South,180,1.9,6.8,92,0.00,,,0.09,Rainwise IP-100,2013-02-06 06:35:00,
2013-02-05 22:40:00,44.3,42.0,29.88,South,180,2.8,8.4,92,0.00,,,0.09,Rainwise IP-100,2013-02-06 06:40:00,
2013-02-05 22:45:00,44.5,42.0,29.88,SSW,202,3.5,6.5,91,0.00,,,0.09,Rainwise IP-100,2013-02-06 06:45:00,
2013-02-05 22:50:00,44.6,42.0,29.88,South,180,4.4,7.5,91,0.00,,,0.09,Rainwise IP-100,2013-02-06 06:50:00,
2013-02-05 22:55:00,44.6,42.0,29.88,SSW,202,3.3,7.7,91,0.00,,,0.09,Rainwise IP-100,2013-02-06 06:55:00,
2013-02-05 23:00:00,44.6,42.0,29.88,South,180,2.3,6.1,91,0.00,,,0.09,Rainwise IP-100,2013-02-06 07:00:00,
2013-02-05 23:05:00,44.6,42.0,29.88,South,180,1.4,6.5,91,0.00,,,0.09,Rainwise IP-100,2013-02-06 07:05:00,
2013-02-05 23:10:00,44.6,42.0,29.88,SSW,202,2.8,7.2,91,0.00,,,0.09,Rainwise IP-100,2013-02-06 07:10:00,
2013-02-05 23:15:00,44.6,42.0,29.89,South,180,0.0,7.5,91,0.00,,,0.09,Rainwise IP-100,2013-02-06 07:15:00,
2013-02-05 23:20:00,44.5,42.0,29.89,South,180,1.4,6.1,91,0.00,,,0.09,Rainwise IP-100,2013-02-06 07:20:00,
2013-02-05 23:25:00,44.5,42.0,29.89,SSW,202,1.9,4.9,91,0.00,,,0.09,Rainwise IP-100,2013-02-06 07:25:00,
2013-02-05 23:30:00,44.6,42.0,29.89,SSW,202,1.6,5.6,91,0.00,,,0.09,Rainwise IP-100,2013-02-06 07:30:00,
2013-02-05 23:35:00,44.6,42.0,29.89,SW,225,1.6,4.7,91,0.00,,,0.09,Rainwise IP-100,2013-02-06 07:35:00,
2013-02-05 23:40:00,44.6,42.0,29.89,SSW,202,0.0,4.2,91,0.00,,,0.09,Rainwise IP-100,2013-02-06 07:40:00,
2013-02-05 23:45:00,44.6,42.0,29.90,SSW,202,3.0,6.8,91,0.00,,,0.09,Rainwise IP-100,2013-02-06 07:45:00,
2013-02-05 23:50:00,44.6,42.0,29.90,SSW,202,3.0,8.2,90,0.00,,,0.09,Rainwise IP-100,2013-02-06 07:50:00,
2013-02-05 23:55:00,44.7,42.0,29.90,SSW,202,1.9,4.7,90,0.00,,,0.09,Rainwise IP-100,2013-02-06 07:55:00,